Location: Ripley
(48.3812°N, 115.4473°W)
Time: 22:25:54
(UTC+00:00)

EO-79 - Pass Details

Date: 03 July 2022
Orbit: 588 x 603 km, 98.0° (Epoch: 17 August)

Event Time Altitude Azimuth Distance (km) Brightness Sun altitude
Rises 09:19:41 0° 16° (NNE) 2,859 ? -15.7°
Reaches altitude 10° 09:21:52 10° 19° (NNE) 1,953 ? -15.5°
Maximum altitude 09:26:06 65° 102° (ESE) 664 ? -15.2°
Enters shadow 09:28:36 23° 179° (S) 1,280 ? -15.1°
